Starlink 11190

operational
NORAD ID: 60911 Int'l Des: 2024-154 Owner: SPXS Country: US Constellation: starlink
LEOCIRCULAR

About Starlink 11190

Description loading...

Live Position

Loading 3D Globe...

Upcoming Passes

Altitude History

Altitude vs Time

uPlot chart will show altitude changes over time

Two-Line Element Set

1 60911U 24154J 26034.11474120 -.00001173 00000-0 -48285-5 0 9994
2 60911 53.1589 301.7298 0001039 106.8830 253.2302 15.69707669 83070
Epoch: Feb 3, 2026 • Age: 23 hours

Current Status

Altitude 364.3 km
Velocity 7.70 km/s
Sub-Earth Point 46.67°N, 174.39°W
Launch Date Aug 31, 2024
Age 1.4 years
Type internet

Technical Details

Classification Payload
Mass 960.00 kg
Dry Mass 910.00 kg
Total Mass 960.00 kg
Length 0.30 m
Diameter 4.10 m
Span 29.00 m
Shape Box + pan
Manufacturer SPXS
Bus Type Starlink V2MD
Phase Status In Orbit
Owner/State SPXS/US

Large Constellations

Loading constellations...